QPF
0.01 0.02 0.02 0.02 0.01 0.00 0.00 0.00 0.01 0.01 0.02 0.04 0.03 0.04 0.06 0.04 0.02 0.03 0.03 0.02 0.01 0.00 0.00 0.00 0.01 0.01 0.01 0.00 0.00 0.00 0.00 0.01 0.02 0.01 0.01 0.01 0.03 0.04 0.03 0.03 0.03 0.03 0.03 0.03
0.01 0.01 0.01 0.00 0.00 0.00 0.01 0.01 0.01 0.01 0.01 0.03 0.04 0.05 0.06 0.05 0.04 0.05 0.03 0.02 0.02 0.01 0.00 0.00 0.01 0.01 0.01 0.00 0.00 0.00 0.00 0.01 0.01 0.01 0.02 0.02 0.02 0.02 0.02 0.04 0.05 0.05 0.03 0.02
0.01 0.01 0.01 0.00 0.00 0.00 0.01 0.01 0.01 0.01 0.01 0.03 0.04 0.06 0.06 0.05 0.06 0.06 0.03 0.02 0.02 0.02 0.01 0.00 0.01 0.00 0.01 0.01 0.01 0.01 0.01 0.01 0.01 0.01 0.02 0.03 0.03 0.02 0.03 0.05 0.05 0.08 0.06 0.04
0.00 0.01 0.01 0.00 0.00 0.00 0.00 0.00 0.01 0.01 0.01 0.02 0.03 0.07 0.07 0.06 0.10 0.07 0.04 0.03 0.03 0.02 0.02 0.01 0.01 0.01 0.02 0.01 0.01 0.02 0.01 0.01 0.01 0.01 0.02 0.03 0.02 0.02 0.03 0.04 0.04 0.04 0.05 0.05
0.00 0.01 0.00 0.00 0.00 0.00 0.00 0.00 0.01 0.01 0.02 0.03 0.05 0.08 0.08 0.08 0.11 0.08 0.05 0.05 0.05 0.03 0.02 0.02 0.02 0.01 0.01 0.01 0.03 0.03 0.02 0.01 0.01 0.02 0.03 0.03 0.02 0.03 0.03 0.04 0.04 0.04 0.04 0.05
0.01 0.01 0.00 0.00 0.00 0.00 0.00 0.01 0.01 0.01 0.02 0.04 0.05 0.04 0.08 0.08 0.06 0.06 0.06 0.07 0.05 0.04 0.04 0.03 0.03 0.03 0.03 0.02 0.03 0.04 0.04 0.06 0.06 0.04 0.04 0.04 0.05 0.05 0.04 0.04 0.05 0.04 0.04 0.04
0.00 0.01 0.00 0.00 0.00 0.00 0.01 0.01 0.01 0.02 0.03 0.03 0.02 0.01 0.02 0.03 0.04 0.07 0.09 0.12 0.09 0.05 0.04 0.04 0.03 0.03 0.03 0.03 0.02 0.02 0.03 0.04 0.05 0.06 0.07 0.05 0.04 0.05 0.04 0.04 0.04 0.04 0.03 0.03
0.01 0.01 0.01 0.01 0.01 0.01 0.01 0.01 0.01 0.02 0.02 0.02 0.01 0.02 0.04 0.06 0.06 0.06 0.09 0.07 0.08 0.12 0.08 0.04 0.04 0.03 0.03 0.03 0.03 0.03 0.03 0.05 0.07 0.10 0.10 0.06 0.04 0.04 0.05 0.05 0.03 0.03 0.02 0.02
0.01 0.01 0.01 0.01 0.01 0.01 0.01 0.01 0.01 0.02 0.03 0.03 0.03 0.03 0.03 0.07 0.09 0.06 0.06 0.06 0.06 0.08 0.06 0.03 0.03 0.03 0.03 0.03 0.06 0.08 0.05 0.04 0.05 0.11 0.11 0.07 0.05 0.03 0.03 0.03 0.02 0.01 0.01 0.01
0.00 0.01 0.01 0.01 0.01 0.00 0.01 0.01 0.02 0.03 0.03 0.04 0.05 0.05 0.04 0.03 0.06 0.05 0.06 0.07 0.06 0.05 0.03 0.02 0.01 0.01 0.02 0.02 0.06 0.06 0.05 0.02 0.03 0.04 0.04 0.05 0.05 0.04 0.03 0.03 0.02 0.02 0.02 0.02
0.00 0.01 0.01 0.01 0.01 0.01 0.01 0.01 0.01 0.02 0.03 0.02 0.04 0.05 0.04 0.03 0.05 0.06 0.05 0.04 0.06 0.05 0.02 0.01 0.01 0.01 0.01 0.01 0.05 0.05 0.03 0.04 0.05 0.06 0.05 0.04 0.06 0.06 0.04 0.03 0.03 0.03 0.02 0.02
0.00 0.01 0.01 0.01 0.01 0.01 0.01 0.01 0.01 0.01 0.01 0.01 0.03 0.03 0.04 0.04 0.06 0.08 0.08 0.05 0.04 0.03 0.02 0.01 0.01 0.01 0.01 0.01 0.02 0.08 0.12 0.10 0.10 0.11 0.13 0.11 0.07 0.07 0.06 0.03 0.03 0.03 0.02 0.03
0.00 0.01 0.02 0.01 0.01 0.01 0.01 0.01 0.01 0.01 0.01 0.01 0.02 0.03 0.03 0.04 0.05 0.07 0.08 0.07 0.04 0.03 0.02 0.02 0.01 0.01 0.00 0.00 0.01 0.01 0.04 0.06 0.07 0.08 0.09 0.10 0.08 0.06 0.07 0.05 0.04 0.04 0.03 0.03
0.00 0.00 0.02 0.01 0.01 0.01 0.01 0.01 0.01 0.01 0.01 0.02 0.02 0.02 0.03 0.04 0.06 0.07 0.09 0.06 0.03 0.03 0.03 0.03 0.02 0.01 0.00 0.00 0.00 0.00 0.01 0.01 0.02 0.04 0.07 0.10 0.08 0.08 0.10 0.11 0.09 0.06 0.04 0.04
0.00 0.00 0.01 0.01 0.01 0.01 0.01 0.01 0.01 0.01 0.01 0.01 0.02 0.02 0.02 0.03 0.04 0.05 0.08 0.06 0.03 0.03 0.02 0.01 0.01 0.00 0.00 0.00 0.00 0.00 0.00 0.01 0.02 0.03 0.04 0.07 0.08 0.11 0.17 0.20 0.15 0.10 0.07 0.05
0.00 0.00 0.00 0.01 0.01 0.02 0.01 0.01 0.01 0.01 0.01 0.01 0.01 0.02 0.01 0.01 0.01 0.02 0.04 0.06 0.05 0.03 0.02 0.01 0.01 0.00 0.00 0.00 0.00 0.00 0.00 0.00 0.01 0.01 0.02 0.03 0.05 0.08 0.12 0.10 0.09 0.09 0.10 0.10
0.00 0.00 0.00 0.01 0.02 0.02 0.02 0.02 0.02 0.02 0.02 0.02 0.01 0.01 0.01 0.01 0.01 0.01 0.01 0.02 0.03 0.03 0.02 0.02 0.01 0.01 0.01 0.01 0.01 0.01 0.00 0.00 0.00 0.00 0.00 0.00 0.01 0.02 0.04 0.06 0.06 0.05 0.07 0.08
0.00 0.00 0.00 0.02 0.03 0.03 0.03 0.03 0.03 0.03 0.03 0.02 0.01 0.01 0.02 0.02 0.02 0.04 0.04 0.04 0.03 0.03 0.02 0.02 0.02 0.01 0.01 0.01 0.01 0.00 0.00 0.00 0.00 0.00 0.00 0.00 0.00 0.01 0.03 0.05 0.05 0.05 0.05 0.05
0.00 0.01 0.01 0.01 0.03 0.03 0.03 0.02 0.03 0.05 0.04 0.03 0.02 0.02 0.03 0.04 0.04 0.07 0.08 0.05 0.05 0.03 0.02 0.03 0.03 0.02 0.01 0.01 0.01 0.00 0.00 0.00 0.00 0.00 0.00 0.00 0.01 0.01 0.02 0.03 0.04 0.05 0.05 0.05
0.00 0.01 0.02 0.02 0.02 0.02 0.01 0.01 0.01 0.02 0.03 0.03 0.02 0.02 0.02 0.02 0.03 0.04 0.05 0.04 0.05 0.03 0.01 0.02 0.04 0.02 0.01 0.01 0.02 0.01 0.01 0.00 0.00 0.00 0.00 0.00 0.01 0.02 0.02 0.03 0.05 0.07 0.08 0.07
0.02 0.01 0.01 0.02 0.02 0.01 0.01 0.01 0.01 0.01 0.02 0.02 0.02 0.02 0.01 0.01 0.00 0.01 0.03 0.03 0.02 0.02 0.02 0.02 0.02 0.02 0.01 0.01 0.01 0.01 0.01 0.00 0.00 0.00 0.01 0.01 0.02 0.02 0.02 0.03 0.04 0.07 0.09 0.09
0.01 0.01 0.02 0.02 0.03 0.02 0.01 0.02 0.02 0.01 0.01 0.01 0.01 0.01 0.01 0.00 0.00 0.01 0.01 0.03 0.03 0.02 0.01 0.02 0.01 0.01 0.01 0.02 0.01 0.00 0.01 0.01 0.01 0.01 0.02 0.02 0.02 0.01 0.01 0.03 0.04 0.06 0.08 0.08
0.01 0.01 0.02 0.02 0.01 0.01 0.01 0.01 0.01 0.01 0.01 0.00 0.00 0.01 0.01 0.01 0.01 0.01 0.01 0.03 0.06 0.03 0.02 0.02 0.02 0.02 0.02 0.04 0.04 0.02 0.01 0.01 0.02 0.02 0.02 0.02 0.02 0.03 0.03 0.04 0.05 0.05 0.06 0.06
0.02 0.02 0.02 0.02 0.02 0.01 0.02 0.01 0.01 0.01 0.00 0.00 0.00 0.01 0.01 0.01 0.02 0.03 0.03 0.04 0.08 0.05 0.03 0.03 0.03 0.03 0.03 0.02 0.04 0.04 0.03 0.03 0.03 0.03 0.03 0.03 0.03 0.03 0.04 0.04 0.04 0.04 0.03 0.03
0.02 0.04 0.06 0.06 0.04 0.02 0.03 0.02 0.02 0.01 0.01 0.01 0.01 0.01 0.01 0.03 0.05 0.04 0.04 0.05 0.08 0.08 0.05 0.04 0.03 0.04 0.05 0.05 0.04 0.04 0.04 0.04 0.04 0.04 0.03 0.03 0.03 0.02 0.02 0.02 0.02 0.02 0.02 0.02
0.03 0.05 0.08 0.09 0.06 0.04 0.03 0.02 0.02 0.02 0.01 0.01 0.01 0.02 0.02 0.03 0.06 0.06 0.06 0.06 0.08 0.10 0.07 0.05 0.04 0.03 0.04 0.06 0.06 0.05 0.06 0.05 0.05 0.04 0.04 0.03 0.02 0.01 0.02 0.01 0.02 0.03 0.03 0.03
MSLP
1007.95 1008.78 1009.40 1009.81 1010.08 1010.29 1010.54 1010.89 1011.36 1011.92 1012.49 1012.97 1013.27 1013.32 1013.10 1012.63 1012.01 1011.31 1010.66 1010.12 1009.74 1009.52 1009.44 1009.43 1009.45 1009.46 1009.46 1009.44 1009.45 1009.54 1009.73 1010.02 1010.41 1010.83 1011.22 1011.52 1011.68 1011.65 1011.46 1011.13 1010.73 1010.32 1009.97 1009.71
1008.65 1009.24 1009.58 1009.72 1009.76 1009.83 1010.03 1010.42 1011.00 1011.71 1012.43 1013.05 1013.43 1013.51 1013.26 1012.72 1012.00 1011.21 1010.47 1009.87 1009.45 1009.23 1009.15 1009.15 1009.18 1009.18 1009.16 1009.12 1009.12 1009.20 1009.40 1009.74 1010.18 1010.67 1011.14 1011.50 1011.68 1011.65 1011.42 1011.02 1010.54 1010.04 1009.59 1009.27
1009.01 1009.35 1009.42 1009.32 1009.18 1009.14 1009.33 1009.80 1010.52 1011.40 1012.29 1013.04 1013.50 1013.59 1013.31 1012.68 1011.86 1010.96 1010.13 1009.47 1009.04 1008.82 1008.77 1008.81 1008.87 1008.90 1008.88 1008.84 1008.83 1008.90 1009.11 1009.47 1009.94 1010.49 1011.01 1011.42 1011.65 1011.65 1011.43 1011.02 1010.50 1009.96 1009.48 1009.11
1009.03 1009.13 1008.97 1008.68 1008.43 1008.37 1008.62 1009.22 1010.11 1011.17 1012.21 1013.06 1013.57 1013.64 1013.28 1012.53 1011.57 1010.55 1009.62 1008.91 1008.46 1008.27 1008.28 1008.40 1008.53 1008.63 1008.66 1008.64 1008.64 1008.70 1008.90 1009.25 1009.74 1010.30 1010.86 1011.32 1011.61 1011.68 1011.51 1011.15 1010.67 1010.15 1009.67 1009.31
1008.77 1008.66 1008.33 1007.95 1007.68 1007.68 1008.06 1008.83 1009.91 1011.14 1012.31 1013.22 1013.72 1013.71 1013.22 1012.31 1011.18 1010.01 1008.98 1008.21 1007.76 1007.61 1007.71 1007.94 1008.19 1008.39 1008.51 1008.55 1008.57 1008.64 1008.82 1009.15 1009.62 1010.18 1010.76 1011.26 1011.61 1011.76 1011.69 1011.42 1011.03 1010.59 1010.18 1009.85
1008.34 1008.07 1007.66 1007.26 1007.06 1007.21 1007.77 1008.74 1010.01 1011.38 1012.64 1013.55 1013.98 1013.83 1013.15 1012.05 1010.73 1009.40 1008.25 1007.43 1006.99 1006.91 1007.12 1007.49 1007.90 1008.24 1008.48 1008.61 1008.68 1008.76 1008.93 1009.22 1009.65 1010.19 1010.76 1011.29 1011.70 1011.94 1011.98 1011.85 1011.58 1011.26 1010.94 1010.68
1007.89 1007.52 1007.09 1006.76 1006.70 1007.03 1007.80 1008.98 1010.41 1011.88 1013.15 1014.01 1014.30 1013.98 1013.09 1011.77 1010.25 1008.77 1007.52 1006.66 1006.24 1006.25 1006.59 1007.12 1007.70 1008.22 1008.60 1008.84 1008.98 1009.09 1009.24 1009.50 1009.88 1010.37 1010.92 1011.46 1011.91 1012.23 1012.39 1012.39 1012.27 1012.08 1011.87 1011.70
1007.53 1007.11 1006.71 1006.49 1006.60 1007.14 1008.11 1009.45 1010.99 1012.49 1013.72 1014.47 1014.60 1014.08 1012.98 1011.46 1009.78 1008.17 1006.86 1005.99 1005.62 1005.73 1006.20 1006.90 1007.65 1008.33 1008.86 1009.22 1009.44 1009.59 1009.74 1009.97 1010.30 1010.74 1011.24 1011.77 1012.25 1012.63 1012.89 1013.01 1013.02 1012.96 1012.87 1012.78
1007.33 1006.89 1006.56 1006.47 1006.74 1007.45 1008.57 1010.01 1011.58 1013.05 1014.17 1014.77 1014.72 1014.02 1012.74 1011.09 1009.31 1007.66 1006.34 1005.50 1005.21 1005.41 1006.01 1006.84 1007.74 1008.57 1009.24 1009.71 1010.02 1010.22 1010.38 1010.58 1010.87 1011.26 1011.72 1012.22 1012.70 1013.12 1013.44 1013.65 1013.77 1013.82 1013.82 1013.81
1007.30 1006.87 1006.61 1006.63 1007.03 1007.84 1009.03 1010.48 1011.99 1013.34 1014.31 1014.74 1014.52 1013.68 1012.32 1010.62 1008.84 1007.23 1005.98 1005.23 1005.03 1005.33 1006.04 1006.98 1007.98 1008.91 1009.68 1010.25 1010.63 1010.88 1011.07 1011.27 1011.54 1011.88 1012.30 1012.76 1013.22 1013.64 1014.00 1014.27 1014.46 1014.58 1014.67 1014.72
1007.41 1007.00 1006.80 1006.89 1007.35 1008.18 1009.34 1010.68 1012.04 1013.21 1013.99 1014.24 1013.90 1013.00 1011.64 1010.01 1008.35 1006.88 1005.78 1005.18 1005.10 1005.49 1006.27 1007.26 1008.32 1009.30 1010.12 1010.75 1011.19 1011.50 1011.72 1011.94 1012.21 1012.53 1012.92 1013.34 1013.77 1014.18 1014.53 1014.82 1015.06 1015.23 1015.37 1015.47
1007.59 1007.22 1007.06 1007.18 1007.62 1008.39 1009.41 1010.56 1011.69 1012.61 1013.18 1013.27 1012.86 1011.96 1010.70 1009.25 1007.82 1006.58 1005.71 1005.30 1005.36 1005.84 1006.65 1007.65 1008.69 1009.67 1010.50 1011.15 1011.63 1011.99 1012.27 1012.53 1012.81 1013.14 1013.51 1013.91 1014.31 1014.69 1015.03 1015.32 1015.57 1015.77 1015.94 1016.08
1007.78 1007.46 1007.32 1007.43 1007.81 1008.43 1009.24 1010.13 1010.97 1011.62 1011.96 1011.92 1011.46 1010.65 1009.57 1008.38 1007.25 1006.33 1005.74 1005.54 1005.74 1006.30 1007.11 1008.07 1009.06 1009.98 1010.78 1011.42 1011.93 1012.33 1012.67 1012.99 1013.32 1013.68 1014.06 1014.45 1014.83 1015.18 1015.49 1015.77 1016.02 1016.23 1016.43 1016.60
1007.98 1007.70 1007.58 1007.66 1007.92 1008.36 1008.91 1009.50 1010.02 1010.38 1010.50 1010.33 1009.88 1009.19 1008.34 1007.46 1006.68 1006.10 1005.81 1005.84 1006.18 1006.79 1007.58 1008.48 1009.37 1010.21 1010.95 1011.58 1012.10 1012.55 1012.95 1013.35 1013.74 1014.15 1014.55 1014.94 1015.31 1015.64 1015.94 1016.20 1016.44 1016.66 1016.88 1017.09
1008.16 1007.94 1007.84 1007.86 1008.00 1008.23 1008.51 1008.79 1009.00 1009.08 1008.99 1008.72 1008.29 1007.74 1007.14 1006.57 1006.14 1005.89 1005.89 1006.13 1006.60 1007.25 1008.02 1008.83 1009.63 1010.38 1011.06 1011.65 1012.19 1012.69 1013.17 1013.64 1014.11 1014.57 1015.01 1015.42 1015.78 1016.10 1016.38 1016.63 1016.87 1017.11 1017.34 1017.58
1008.35 1008.18 1008.09 1008.06 1008.08 1008.11 1008.14 1008.14 1008.06 1007.89 1007.63 1007.28 1006.87 1006.44 1006.06 1005.78 1005.65 1005.70 1005.95 1006.37 1006.95 1007.63 1008.37 1009.11 1009.83 1010.51 1011.13 1011.72 1012.28 1012.83 1013.38 1013.93 1014.47 1014.99 1015.46 1015.89 1016.25 1016.56 1016.83 1017.08 1017.32 1017.57 1017.84 1018.11
1008.55 1008.42 1008.32 1008.24 1008.15 1008.02 1007.85 1007.61 1007.30 1006.93 1006.52 1006.10 1005.71 1005.39 1005.18 1005.13 1005.24 1005.52 1005.96 1006.53 1007.19 1007.90 1008.62 1009.32 1009.99 1010.63 1011.24 1011.83 1012.43 1013.04 1013.66 1014.27 1014.87 1015.43 1015.93 1016.36 1016.72 1017.03 1017.29 1017.54 1017.79 1018.06 1018.35 1018.66
1008.73 1008.60 1008.49 1008.35 1008.17 1007.92 1007.59 1007.18 1006.71 1006.20 1005.69 1005.23 1004.85 1004.60 1004.52 1004.61 1004.89 1005.33 1005.90 1006.57 1007.29 1008.03 1008.76 1009.46 1010.12 1010.76 1011.39 1012.03 1012.68 1013.35 1014.02 1014.69 1015.33 1015.91 1016.42 1016.84 1017.20 1017.49 1017.75 1018.00 1018.26 1018.55 1018.87 1019.20
1008.85 1008.67 1008.50 1008.30 1008.03 1007.69 1007.26 1006.75 1006.19 1005.60 1005.05 1004.57 1004.21 1004.01 1004.00 1004.19 1004.57 1005.10 1005.75 1006.49 1007.26 1008.04 1008.79 1009.52 1010.23 1010.91 1011.60 1012.30 1013.02 1013.74 1014.47 1015.17 1015.82 1016.40 1016.89 1017.31 1017.64 1017.92 1018.18 1018.43 1018.71 1019.02 1019.36 1019.70
1008.85 1008.56 1008.29 1007.99 1007.64 1007.23 1006.74 1006.19 1005.59 1004.99 1004.44 1003.98 1003.66 1003.50 1003.54 1003.79 1004.22 1004.80 1005.50 1006.28 1007.10 1007.92 1008.74 1009.53 1010.31 1011.08 1011.85 1012.62 1013.41 1014.18 1014.94 1015.65 1016.30 1016.86 1017.33 1017.72 1018.04 1018.31 1018.56 1018.82 1019.12 1019.45 1019.80 1020.16
1008.68 1008.23 1007.80 1007.38 1006.93 1006.45 1005.93 1005.37 1004.80 1004.24 1003.73 1003.33 1003.06 1002.96 1003.05 1003.34 1003.80 1004.41 1005.14 1005.96 1006.82 1007.71 1008.60 1009.48 1010.35 1011.22 1012.08 1012.94 1013.78 1014.60 1015.38 1016.09 1016.72 1017.25 1017.70 1018.06 1018.36 1018.63 1018.89 1019.17 1019.48 1019.83 1020.19 1020.56
1008.33 1007.66 1007.04 1006.46 1005.90 1005.35 1004.80 1004.26 1003.73 1003.25 1002.83 1002.51 1002.33 1002.31 1002.46 1002.79 1003.29 1003.94 1004.71 1005.57 1006.49 1007.44 1008.41 1009.39 1010.36 1011.33 1012.27 1013.20 1014.09 1014.94 1015.72 1016.41 1017.02 1017.53 1017.95 1018.30 1018.61 1018.88 1019.17 1019.47 1019.80 1020.17 1020.55 1020.92
1007.84 1006.94 1006.10 1005.34 1004.65 1004.01 1003.43 1002.90 1002.43 1002.03 1001.72 1001.51 1001.44 1001.51 1001.75 1002.15 1002.71 1003.41 1004.23 1005.15 1006.13 1007.16 1008.22 1009.29 1010.35 1011.39 1012.40 1013.38 1014.30 1015.15 1015.92 1016.60 1017.19 1017.68 1018.10 1018.45 1018.77 1019.08 1019.40 1019.74 1020.10 1020.49 1020.88 1021.24
1007.28 1006.16 1005.11 1004.17 1003.33 1002.59 1001.97 1001.44 1001.02 1000.70 1000.49 1000.41 1000.45 1000.64 1000.98 1001.47 1002.12 1002.89 1003.78 1004.77 1005.83 1006.94 1008.07 1009.21 1010.33 1011.43 1012.48 1013.47 1014.39 1015.24 1015.99 1016.65 1017.22 1017.72 1018.15 1018.53 1018.89 1019.25 1019.62 1020.00 1020.40 1020.81 1021.20 1021.55
1006.74 1005.45 1004.23 1003.12 1002.14 1001.31 1000.62 1000.08 999.68 999.42 999.29 999.31 999.47 999.78 1000.23 1000.84 1001.58 1002.46 1003.44 1004.51 1005.65 1006.82 1008.02 1009.20 1010.36 1011.47 1012.52 1013.50 1014.41 1015.22 1015.95 1016.60 1017.17 1017.68 1018.14 1018.57 1018.99 1019.41 1019.84 1020.27 1020.70 1021.13 1021.52 1021.86
1006.31 1004.92 1003.58 1002.36 1001.26 1000.34 999.58 999.00 998.59 998.35 998.29 998.38 998.64 999.05 999.62 1000.34 1001.20 1002.18 1003.26 1004.42 1005.63 1006.87 1008.10 1009.30 1010.46 1011.56 1012.59 1013.53 1014.39 1015.17 1015.86 1016.50 1017.07 1017.61 1018.12 1018.61 1019.10 1019.58 1020.07 1020.55 1021.02 1021.45 1021.83 1022.15
Thickness
5833 5815 5804 5812 5819 5820 5816 5808 5805 5817 5835 5823 5814 5812 5816 5824 5822 5820 5819 5817 5816 5817 5820 5821 5820 5817 5813 5809 5805 5803 5800 5797 5795 5791 5788 5785 5783 5783 5783 5783 5783 5781 5780 5778
5810 5805 5825 5834 5832 5826 5817 5806 5806 5818 5833 5821 5810 5810 5819 5824 5825 5825 5823 5819 5818 5817 5817 5818 5817 5816 5813 5809 5806 5803 5801 5798 5796 5793 5790 5788 5785 5783 5783 5783 5781 5780 5779 5777
5802 5818 5837 5832 5825 5817 5814 5809 5809 5809 5819 5820 5809 5799 5810 5820 5826 5827 5828 5826 5824 5821 5818 5817 5816 5814 5813 5810 5808 5806 5802 5800 5797 5795 5791 5788 5784 5782 5780 5779 5778 5779 5777 5776
5812 5830 5832 5825 5822 5819 5805 5828 5826 5819 5801 5787 5799 5771 5795 5808 5814 5819 5821 5823 5823 5824 5821 5819 5817 5814 5814 5813 5811 5808 5804 5800 5798 5795 5791 5785 5780 5776 5777 5777 5777 5776 5776 5775
5809 5825 5823 5819 5827 5830 5820 5835 5828 5820 5801 5785 5789 5774 5784 5802 5802 5811 5819 5824 5826 5827 5825 5822 5820 5818 5817 5815 5811 5807 5803 5800 5797 5794 5791 5786 5781 5778 5777 5776 5775 5774 5773 5773
5819 5835 5833 5831 5840 5840 5836 5825 5816 5803 5785 5763 5778 5772 5773 5791 5803 5811 5819 5824 5827 5828 5827 5825 5824 5820 5816 5814 5810 5807 5801 5798 5796 5793 5790 5786 5781 5777 5774 5772 5771 5770 5770 5770
5803 5819 5834 5840 5825 5830 5825 5794 5766 5759 5748 5753 5778 5773 5778 5808 5818 5818 5819 5822 5825 5827 5825 5823 5820 5817 5814 5811 5809 5805 5801 5797 5795 5792 5789 5786 5782 5778 5774 5772 5770 5768 5766 5766
5778 5785 5818 5831 5824 5813 5813 5796 5762 5746 5741 5751 5770 5767 5788 5817 5825 5826 5825 5825 5825 5824 5824 5823 5821 5818 5814 5811 5808 5804 5800 5796 5794 5791 5788 5785 5782 5778 5775 5773 5770 5768 5766 5765
5777 5784 5822 5833 5837 5826 5807 5796 5794 5767 5756 5745 5754 5771 5793 5813 5814 5818 5819 5819 5819 5823 5824 5823 5820 5817 5813 5809 5806 5803 5799 5795 5792 5789 5786 5783 5780 5777 5774 5772 5770 5768 5766 5765
5795 5782 5804 5825 5830 5827 5818 5806 5781 5762 5743 5734 5747 5758 5767 5790 5800 5807 5809 5811 5813 5818 5819 5818 5818 5815 5812 5809 5805 5802 5798 5795 5792 5788 5784 5781 5778 5775 5773 5770 5767 5765 5764 5762
5799 5779 5786 5800 5798 5797 5800 5794 5779 5762 5757 5738 5731 5751 5796 5797 5801 5802 5806 5810 5811 5814 5815 5814 5812 5811 5809 5805 5801 5797 5794 5790 5787 5785 5781 5778 5775 5772 5769 5767 5765 5763 5761 5759
5793 5773 5764 5781 5804 5813 5803 5792 5776 5757 5752 5750 5741 5755 5808 5806 5807 5806 5806 5810 5813 5813 5813 5811 5808 5805 5802 5799 5796 5792 5790 5787 5784 5782 5778 5775 5771 5768 5765 5763 5761 5759 5757 5756
5789 5764 5745 5753 5770 5788 5788 5789 5783 5768 5753 5744 5738 5756 5801 5801 5802 5805 5807 5808 5809 5808 5806 5804 5801 5799 5796 5794 5791 5788 5786 5784 5781 5779 5775 5770 5766 5764 5760 5758 5757 5755 5752 5750
5792 5760 5747 5740 5751 5769 5774 5781 5782 5766 5746 5744 5752 5763 5781 5789 5793 5798 5802 5803 5804 5802 5800 5797 5794 5793 5793 5790 5787 5784 5782 5780 5777 5774 5769 5765 5763 5760 5757 5754 5751 5749 5747 5745
5776 5754 5757 5761 5771 5776 5775 5777 5779 5770 5764 5754 5760 5765 5776 5786 5792 5796 5798 5797 5796 5795 5793 5793 5791 5789 5787 5785 5782 5780 5777 5775 5772 5768 5764 5761 5759 5757 5753 5749 5746 5744 5742 5740
5758 5749 5750 5752 5765 5767 5765 5771 5775 5773 5771 5764 5765 5767 5784 5789 5791 5790 5790 5790 5787 5788 5788 5788 5788 5786 5784 5782 5779 5775 5772 5770 5767 5763 5759 5757 5754 5751 5748 5744 5742 5739 5736 5733
5742 5738 5730 5728 5746 5751 5742 5761 5766 5768 5770 5765 5757 5767 5779 5779 5782 5784 5785 5786 5784 5784 5783 5783 5783 5782 5780 5779 5777 5772 5770 5767 5762 5758 5754 5751 5748 5745 5743 5741 5737 5733 5730 5727
5735 5726 5715 5715 5726 5715 5739 5768 5772 5766 5765 5769 5769 5772 5777 5778 5781 5783 5784 5781 5780 5782 5782 5781 5780 5779 5778 5776 5773 5769 5766 5761 5756 5753 5749 5747 5743 5740 5737 5734 5730 5727 5724 5721
5738 5724 5709 5701 5703 5715 5739 5759 5763 5754 5750 5763 5764 5768 5770 5774 5773 5771 5778 5780 5780 5780 5782 5781 5780 5778 5775 5772 5768 5763 5757 5754 5750 5747 5745 5743 5739 5735 5731 5727 5724 5722 5719 5716
5728 5721 5705 5697 5697 5699 5727 5757 5767 5755 5734 5757 5761 5761 5763 5764 5749 5755 5772 5775 5777 5778 5777 5776 5776 5774 5769 5767 5764 5755 5750 5747 5745 5744 5742 5739 5735 5730 5726 5723 5720 5717 5714 5711
5703 5701 5696 5691 5691 5703 5735 5753 5754 5725 5728 5752 5757 5757 5756 5753 5753 5761 5768 5770 5772 5772 5771 5770 5769 5766 5764 5763 5758 5751 5746 5742 5742 5740 5737 5733 5730 5726 5722 5718 5715 5712 5708 5705
5690 5685 5685 5684 5682 5695 5736 5739 5729 5729 5743 5747 5749 5751 5751 5751 5755 5758 5761 5762 5764 5763 5763 5762 5760 5758 5758 5757 5752 5746 5741 5739 5736 5732 5728 5725 5722 5720 5717 5712 5709 5705 5701 5697
5688 5691 5689 5690 5695 5715 5729 5730 5734 5736 5735 5738 5741 5744 5745 5743 5744 5748 5749 5751 5754 5754 5755 5756 5754 5751 5749 5748 5746 5740 5737 5735 5730 5725 5720 5717 5714 5711 5708 5704 5700 5696 5693 5689
5687 5695 5688 5687 5699 5711 5719 5725 5728 5732 5732 5735 5738 5739 5739 5736 5737 5738 5739 5741 5743 5745 5747 5747 5745 5742 5739 5739 5739 5736 5732 5728 5723 5718 5713 5709 5705 5702 5699 5697 5693 5689 5685 5683
5679 5683 5678 5678 5690 5699 5708 5715 5720 5724 5726 5728 5730 5733 5732 5731 5729 5730 5729 5731 5733 5735 5737 5737 5736 5734 5732 5732 5730 5729 5725 5722 5716 5710 5706 5702 5699 5696 5691 5688 5685 5683 5680 5678
5673 5673 5668 5670 5685 5686 5693 5705 5713 5713 5715 5718 5720 5721 5723 5723 5722 5722 5721 5722 5724 5724 5726 5726 5727 5726 5724 5723 5721 5720 5718 5715 5709 5703 5697 5694 5691 5688 5684 5680 5676 5675 5673 5671